This demonstration page uses our WeatherBlox Daily Observations layout. Learn more.

Left ArrowRight Arrow

41.86663, -103.66717

Hourly Observations for November 30, 2022

Temp ( °F °C ) Dew Point ( °F °C ) Humidity (%) Winds ( mph kmh ) Pressure ( in mb ) Visibility ( mi km ) Precip ( " mm )
12:53 am 00:53 Clear 0 -17.8 -5 -20.6 79 79 NNW 10 17 30.33 1027 10 16 0.00 0.00
1:53 am 01:53 Clear 0 -17.8 -5 -20.6 79 79 WNW 8 13 30.34 1028 10 16 0.00 0.00
2:53 am 02:53 Clear -1 -18.3 -6 -21.1 78 78 NW 3 6 30.36 1028 10 16 0.00 0.00
3:53 am 03:53 Clear -1 -18.3 -6 -21.1 78 78 Calm 30.38 1029 10 16 0.00 0.00
4:53 am 04:53 Clear -5 -20.6 -11 -23.9 75 75 N 5 7 30.41 1030 10 16 0.00 0.00
5:53 am 05:53 Clear -6 -21.1 -11 -23.9 78 78 NW 3 6 30.42 1030 10 16 0.00 0.00
7:01 am 07:01 Partly Cloudy -6 -21.1 -11 -23.9 78 78 S 3 6 30.66 1038 10 16 0.00 0.00
7:13 am 07:13 Mostly Cloudy -5 -20.6 -11 -23.9 75 75 Calm 30.66 1038 10 16 0.00 0.00
7:37 am 07:37 Hazy -2 -18.9 -7 -21.7 78 78 NNE 5 7 30.62 1037 1 1 0.00 0.00
7:44 am 07:44 Mostly Cloudy with Haze -3 -19.4 -8 -22.2 78 78 Calm 30.63 1037 2 3 0.00 0.00
7:53 am 07:53 Partly Cloudy -1 -18.3 -7 -21.7 74 74 Calm 30.46 1031 10 16 0.00 0.00
8:53 am 08:53 Sunny 4 -15.6 -1 -18.3 80 80 ENE 5 7 30.45 1031 10 16 0.00 0.00
9:53 am 09:53 Sunny 10 -12.2 4 -15.6 76 76 ESE 8 13 30.41 1030 10 16 0.01 0.13
10:53 am 10:53 Sunny 15 -9.4 7 -13.9 70 70 ESE 10 17 30.36 1028 10 16 0.00 0.00
11:53 am 11:53 Sunny 18 -7.8 9 -12.8 67 67 ESE 13 20 30.31 1026 10 16 0.00 0.00
12:53 pm 12:53 Sunny 21 -6.1 12 -11.1 68 68 ESE 13 20 30.27 1025 10 16 0.00 0.00
1:53 pm 13:53 Sunny 24 -4.4 13 -10.6 62 62 ESE 13 20 30.22 1023 10 16 0.00 0.00
2:53 pm 14:53 Sunny 27 -2.8 15 -9.4 60 60 SE 12 19 30.18 1022 10 16 0.00 0.00
3:53 pm 15:53 Sunny 27 -2.8 17 -8.3 66 66 E 12 19 30.17 1022 10 16 0.00 0.00
4:53 pm 16:53 Clear 26 -3.3 17 -8.3 68 68 ESE 14 22 30.16 1021 10 16 0.00 0.00
5:53 pm 17:53 Clear 24 -4.4 16 -8.9 71 71 E 9 15 30.15 1021 10 16 0.00 0.00
6:53 pm 18:53 Clear 22 -5.6 15 -9.4 74 74 E 10 17 30.15 1021 10 16 0.00 0.00
7:53 pm 19:53 Clear 21 -6.1 14 -10 74 74 E 9 15 30.12 1020 10 16 0.00 0.00
8:53 pm 20:53 Clear 23 -5 15 -9.4 71 71 E 12 19 30.09 1019 10 16 0.00 0.00
9:53 pm 21:53 Clear 21 -6.1 14 -10 74 74 ESE 6 9 30.05 1018 10 16 0.00 0.00
10:53 pm 22:53 Clear 17 -8.3 11 -11.7 76 76 E 7 11 30.02 1017 10 16 0.00 0.00
11:53 pm 23:53 Clear 19 -7.2 12 -11.1 74 74 ENE 12 19 29.99 1016 10 16 0.00 0.00

Powered by AerisWeather